This is the latest recevied weather packets stored in our database for station/object K1RTA-1. If no packets are shown the sender has not sent any weather packets the latest 10 day(s).
| Time | Temp. | Humidity | Pressure | Rain* | Wind** | Luminosity | Snow |
|---|---|---|---|---|---|---|---|
| 1778106082 | 16.11° C | 82% | 1010.1 hPa | 0 mm | - | - | - |
| 1778105181 | 16.11° C | 81% | 1010.2 hPa | 0 mm | - | - | - |
| 1778104282 | 16.67° C | 81% | 1010.5 hPa | 0 mm | - | - | - |
| 1778103381 | 16.67° C | 80% | 1010.6 hPa | 0 mm | - | - | - |
| 1778102481 | 16.67° C | 80% | 1010.6 hPa | 0 mm | - | - | - |
| 1778101582 | 17.22° C | 80% | 1010.6 hPa | 0 mm | - | - | - |
| 1778100683 | 16.67° C | 79% | 1010.7 hPa | 0 mm | - | - | - |
| 1778099782 | 17.22° C | 79% | 1011.1 hPa | 0 mm | - | - | - |
| 1778098881 | 17.22° C | 79% | 1011.2 hPa | 0 mm | - | - | - |
| 1778097982 | 17.22° C | 79% | 1011.4 hPa | 0 mm | - | - | - |
| 1778097081 | 17.22° C | 79% | 1011.4 hPa | 0 mm | - | - | - |
| 1778096183 | 17.22° C | 79% | 1011.4 hPa | 0 mm | - | - | - |
| 1778095283 | 17.22° C | 79% | 1011.6 hPa | 0 mm | - | - | - |
| 1778094382 | 17.22° C | 78% | 1011.9 hPa | 0 mm | - | - | - |
| 1778093482 | 17.22° C | 77% | 1012.2 hPa | 0 mm | - | - | - |
| 1778092583 | 17.78° C | 76% | 1012.2 hPa | 0 mm | - | - | - |
| 1778091682 | 18.89° C | 74% | 1012.6 hPa | 0 mm | - | - | - |
| 1778090782 | 18.89° C | 75% | 1012.7 hPa | 0 mm | - | - | - |
| 1778089881 | 18.33° C | 76% | 1012.7 hPa | 0 mm | - | - | - |
| 1778088982 | 17.78° C | 77% | 1012.7 hPa | 0 mm | - | - | - |
| 1778088082 | 17.78° C | 77% | 1013 hPa | 0 mm | - | - | - |
| 1778087183 | 18.33° C | 76% | 1013.3 hPa | 0 mm | - | - | - |
| 1778086283 | 18.33° C | 75% | 1013.5 hPa | 0 mm | - | - | - |
| 1778085383 | 18.89° C | 73% | 1013.5 hPa | 0 mm | - | - | - |
| 1778084482 | 18.89° C | 75% | 1013.7 hPa | 0 mm | - | - | - |
* Rain latest hour (hover to see other rain measurements)
** Current wind speed in m/s (hover to see current wind gust speed)